星链-11723 (STARLINK-11723)

导读 | 豆包AI

STARLINK-11723是美国SpaceX公司星链星座的第二代V2 Mini卫星,于2025年5月21日公布完成发射部署,本次任务猎鹰9号火箭一级助推器成功回收,26颗星链卫星精准入轨,轨道高度约530公里。作为星链全球组网的一部分,它为偏远地区提供高速互联网接入,支持航空、海上等特殊场景通信,但卫星密集部署也引发天文观测干扰和轨道碎片担忧。

基本信息
目录编号:
64075
目录名称:
STARLINK-11723
国际标识:
2025-107M
轨道中心:
EARTH
卫星名称:
星链-11723
卫星全名:
星链-11723 (STARLINK-11723)
卫星状态:
在轨 (已飞行346 天)
发射日期:
2025-05-21 UTC
国别 :
美国 (US)
星等 :
--
轨道信息
数据来源 国际轨道数据
星历时间: 2026-05-02T09:52:16+0800
8小时前
查看轨道信息
半长轴: 6734.406km
偏心率: 0.0001377
轨道倾角: 42.999°
近地点辐角 254.316°
升交点赤经 136.512°
平近点角 105.755°
近地点: 355.341km
远地点: 357.197km
周期: 91.666分钟
每日圈数: 15.709193
详细信息
固有亮度:
5
最大亮度:
2.5
卫星平台:
Starlink V1.0
覆盖范围:
全球
运营商:
太空探索技术公司
运营商所在国:
美国
制造商(研发单位):
太空探索技术公司
制造商所在国:
美国
使用方式:
暂无
卫星简介
Starlink 计划是 SpaceX 推出的全球卫星互联网项目,通过发射低轨道卫星,为全球尤其是偏远地区提供高速、低延迟的互联网服务。自 2019 年起,Starlink 已部署数千颗卫星,旨在缩小全球数字鸿沟,推动互联网普及。该项目还为军事、航空等行业提供通信支持,带来广泛经济效益。
2D轨道图
3D轨道图
轨道高度分析图
轨道倾角分析图
轨道综合分析图
查看轨道综合分析图